AAL280 RKSI-KDFW

Flight info

Callsign AAL280
Flight time N/A
Altitude 33000
Route EGOB2Y EGOBA Y697 BIKSI Y697 LANAT Y51 SAMON Y142 GTC Y512 ADNAP OTR7 EMRON 39N160E 41N170E 43N180E 44N170W 44N160W 43N150W 43N140W42N130W NATTE MVA EHK DICEE RGINA DIXAN PNH MDANO JOVEM6
Aircraft B772/H-SDE1E3FGHIJ3J5M1P2RWXYZ/LB1D1

Departure

Time N/A
Airport Incheon International Airport (RKSI)

Arrival

Time 2026-04-30 14:20
Airport Dallas Fort Worth International Airport (KDFW)
Time Latitude Longitude Altitude Speed Heading
2026-04-30 13:09 36.36163 -106.53563 39130 ft 575 kts 104°
2026-04-30 13:10 36.34822 -106.43775 39141 ft 576 kts 104°
2026-04-30 13:10 36.33472 -106.33960 39143 ft 577 kts 104°
2026-04-30 13:11 36.32144 -106.24139 39142 ft 577 kts 104°
2026-04-30 13:11 36.30769 -106.14390 39151 ft 577 kts 104°
2026-04-30 13:12 36.29376 -106.04574 39165 ft 577 kts 104°
2026-04-30 13:12 36.27967 -105.94769 39171 ft 577 kts 106°
2026-04-30 13:13 36.24853 -105.80415 39174 ft 574 kts 113°
2026-04-30 13:14 36.21444 -105.66296 39177 ft 572 kts 112°
2026-04-30 13:14 36.18149 -105.52096 39191 ft 573 kts 111°
2026-04-30 13:15 36.14930 -105.37844 39194 ft 574 kts 111°
2026-04-30 13:16 36.12744 -105.28340 39194 ft 574 kts 112°
2026-04-30 13:16 36.10542 -105.18837 39192 ft 575 kts 112°
2026-04-30 13:17 36.07215 -105.04560 39193 ft 576 kts 112°
2026-04-30 13:18 36.03865 -104.90271 39189 ft 578 kts 112°
2026-04-30 13:18 36.00501 -104.76010 39186 ft 580 kts 112°
2026-04-30 13:19 35.98234 -104.66440 39184 ft 581 kts 113°
2026-04-30 13:19 35.95955 -104.56865 39182 ft 582 kts 113°
2026-04-30 13:20 35.94034 -104.48824 39181 ft 583 kts 113°
2026-04-30 13:20 35.91749 -104.39288 39172 ft 584 kts 114°
2026-04-30 13:21 35.89437 -104.29678 39171 ft 584 kts 114°
2026-04-30 13:22 35.85951 -104.15259 39168 ft 585 kts 114°
2026-04-30 13:22 35.82443 -104.00835 39165 ft 586 kts 114°
2026-04-30 13:23 35.78920 -103.86431 39161 ft 585 kts 114°
2026-04-30 13:24 35.74199 -103.67258 39162 ft 584 kts 114°
2026-04-30 13:25 35.69460 -103.48157 39153 ft 583 kts 114°
2026-04-30 13:26 35.63506 -103.24361 39157 ft 582 kts 114°
2026-04-30 13:28 35.57528 -103.00686 39166 ft 582 kts 114°
2026-04-30 13:28 35.53909 -102.86461 39170 ft 582 kts 114°
2026-04-30 13:29 35.49051 -102.67490 39171 ft 583 kts 114°
2026-04-30 13:31 35.42928 -102.43770 39176 ft 585 kts 113°
2026-04-30 13:32 35.36740 -102.20017 39177 ft 584 kts 114°
2026-04-30 13:33 35.31806 -102.01108 39175 ft 584 kts 114°
2026-04-30 13:34 35.28037 -101.86886 39176 ft 587 kts 114°
2026-04-30 13:35 35.22815 -101.67972 39170 ft 582 kts 119°
2026-04-30 13:36 35.15522 -101.50486 39170 ft 573 kts 126°
2026-04-30 13:36 35.09981 -101.37547 39171 ft 573 kts 125°
2026-04-30 13:37 35.04566 -101.24583 39168 ft 575 kts 124°
2026-04-30 13:38 34.99108 -101.11548 39166 ft 575 kts 124°
2026-04-30 13:39 34.91794 -100.94232 39161 ft 574 kts 124°
2026-04-30 13:40 34.86293 -100.81272 39156 ft 574 kts 124°
2026-04-30 13:40 34.82618 -100.72643 39152 ft 575 kts 124°
2026-04-30 13:41 34.78926 -100.63996 39148 ft 575 kts 124°
2026-04-30 13:41 34.75237 -100.55375 39143 ft 574 kts 124°
2026-04-30 13:42 34.71540 -100.46761 39140 ft 574 kts 124°
2026-04-30 13:42 34.65991 -100.33869 39133 ft 573 kts 124°
2026-04-30 13:43 34.62286 -100.25289 39132 ft 573 kts 124°
2026-04-30 13:43 34.58578 -100.16724 39131 ft 573 kts 124°
2026-04-30 13:44 34.54888 -100.08220 39130 ft 574 kts 124°
2026-04-30 13:44 34.51162 -99.99654 39129 ft 573 kts 124°
2026-04-30 13:45 34.45594 -99.86827 39127 ft 573 kts 124°
2026-04-30 13:46 34.41856 -99.78291 39122 ft 573 kts 125°
2026-04-30 13:46 34.38111 -99.69789 39118 ft 572 kts 125°
2026-04-30 13:47 34.34359 -99.61282 39116 ft 573 kts 124°
2026-04-30 13:47 34.30555 -99.52801 38805 ft 571 kts 127°
2026-04-30 13:47 34.28562 -99.48657 38107 ft 571 kts 128°
2026-04-30 13:48 34.26546 -99.44524 37576 ft 569 kts 127°
2026-04-30 13:48 34.24559 -99.40417 37172 ft 564 kts 127°
2026-04-30 13:48 34.22589 -99.36325 36749 ft 560 kts 127°
2026-04-30 13:48 34.20640 -99.32264 36330 ft 557 kts 127°
2026-04-30 13:49 34.18706 -99.28233 35919 ft 553 kts 127°
2026-04-30 13:49 34.16782 -99.24226 35505 ft 550 kts 127°
2026-04-30 13:49 34.14896 -99.20287 35098 ft 547 kts 127°
2026-04-30 13:49 34.13015 -99.16307 34690 ft 544 kts 127°
2026-04-30 13:50 34.11132 -99.12353 34291 ft 541 kts 127°
2026-04-30 13:50 34.07390 -99.04549 33501 ft 534 kts 127°
2026-04-30 13:50 34.05533 -99.00685 33122 ft 531 kts 127°
2026-04-30 13:51 34.03704 -98.96840 32755 ft 527 kts 127°
2026-04-30 13:51 34.01874 -98.93028 32401 ft 522 kts 127°
2026-04-30 13:51 34.00049 -98.89255 32045 ft 518 kts 128°
2026-04-30 13:51 33.98237 -98.85518 31695 ft 514 kts 127°
2026-04-30 13:52 33.96442 -98.81821 31361 ft 509 kts 127°
2026-04-30 13:52 33.94658 -98.78151 31007 ft 505 kts 127°
2026-04-30 13:52 33.92891 -98.74513 30656 ft 501 kts 127°
2026-04-30 13:52 33.91135 -98.70916 30330 ft 496 kts 128°
2026-04-30 13:53 33.89402 -98.67342 29973 ft 493 kts 128°
2026-04-30 13:53 33.87675 -98.63801 29609 ft 489 kts 128°
2026-04-30 13:53 33.85969 -98.60316 29228 ft 487 kts 128°
2026-04-30 13:53 33.84256 -98.56823 28849 ft 484 kts 128°
2026-04-30 13:54 33.82547 -98.53340 28460 ft 482 kts 127°
2026-04-30 13:54 33.80855 -98.49886 28074 ft 479 kts 127°
2026-04-30 13:54 33.79179 -98.46431 27687 ft 477 kts 127°
2026-04-30 13:54 33.77525 -98.42986 27303 ft 474 kts 127°
2026-04-30 13:55 33.75859 -98.39580 26910 ft 470 kts 127°
2026-04-30 13:55 33.74203 -98.36211 26536 ft 467 kts 127°
2026-04-30 13:55 33.72554 -98.32865 26151 ft 463 kts 127°
2026-04-30 13:55 33.70915 -98.29544 25767 ft 460 kts 127°
2026-04-30 13:56 33.69290 -98.26253 25383 ft 457 kts 127°
2026-04-30 13:56 33.67675 -98.22983 24998 ft 454 kts 126°
2026-04-30 13:56 33.66071 -98.19738 24614 ft 451 kts 126°
2026-04-30 13:56 33.64478 -98.16516 24228 ft 448 kts 126°
2026-04-30 13:57 33.62898 -98.13305 23810 ft 446 kts 126°
2026-04-30 13:57 33.61322 -98.10117 23377 ft 444 kts 126°
2026-04-30 13:57 33.59745 -98.06945 22946 ft 442 kts 126°
2026-04-30 13:57 33.58173 -98.03790 22514 ft 440 kts 126°
2026-04-30 13:58 33.56601 -98.00641 22085 ft 440 kts 126°
2026-04-30 13:58 33.53476 -97.94386 21234 ft 439 kts 126°
2026-04-30 13:58 33.51909 -97.91251 20809 ft 439 kts 126°
2026-04-30 13:59 33.50349 -97.88110 20382 ft 438 kts 125°
2026-04-30 13:59 33.48791 -97.84964 19956 ft 438 kts 126°
2026-04-30 13:59 33.47235 -97.81835 19532 ft 437 kts 126°
2026-04-30 13:59 33.45676 -97.78716 19107 ft 436 kts 126°
2026-04-30 14:00 33.44118 -97.75603 18684 ft 435 kts 125°
2026-04-30 14:00 33.41103 -97.69588 17835 ft 409 kts 126°
2026-04-30 14:00 33.39632 -97.66693 17422 ft 406 kts 127°
2026-04-30 14:01 33.38053 -97.63913 17018 ft 400 kts 132°
2026-04-30 14:01 33.36280 -97.61450 16630 ft 377 kts 139°
2026-04-30 14:01 33.34434 -97.59343 16286 ft 362 kts 143°
2026-04-30 14:01 33.32579 -97.57308 15929 ft 361 kts 142°
2026-04-30 14:02 33.30772 -97.55233 15574 ft 360 kts 141°
2026-04-30 14:02 33.28989 -97.53135 15223 ft 358 kts 140°
2026-04-30 14:02 33.27255 -97.51067 14880 ft 356 kts 140°
2026-04-30 14:02 33.25474 -97.48963 14535 ft 354 kts 140°
2026-04-30 14:03 33.23745 -97.46941 14209 ft 352 kts 140°
2026-04-30 14:03 33.22001 -97.44905 13868 ft 350 kts 140°
2026-04-30 14:03 33.20263 -97.42874 13531 ft 348 kts 140°
2026-04-30 14:03 33.18538 -97.40860 13200 ft 346 kts 140°
2026-04-30 14:04 33.16818 -97.38854 12861 ft 344 kts 140°
2026-04-30 14:04 33.15112 -97.36861 12535 ft 342 kts 139°
2026-04-30 14:04 33.13410 -97.34885 12216 ft 340 kts 139°
2026-04-30 14:04 33.11743 -97.32927 12067 ft 332 kts 139°
2026-04-30 14:05 33.10125 -97.31028 12009 ft 321 kts 139°
2026-04-30 14:05 33.08541 -97.29177 12000 ft 318 kts 139°
2026-04-30 14:05 33.06967 -97.27343 11992 ft 314 kts 139°
2026-04-30 14:05 33.05938 -97.26147 11989 ft 313 kts 139°
2026-04-30 14:06 33.03857 -97.23725 11990 ft 314 kts 140°
2026-04-30 14:06 33.01240 -97.20677 11989 ft 318 kts 139°
2026-04-30 14:07 32.97215 -97.17597 11973 ft 277 kts 171°
2026-04-30 14:07 32.95963 -97.17282 11904 ft 269 kts 175°
2026-04-30 14:07 32.94131 -97.16956 11640 ft 266 kts 179°
2026-04-30 14:08 32.90376 -97.16628 10838 ft 271 kts 182°
2026-04-30 14:08 32.88500 -97.16538 10593 ft 269 kts 182°
2026-04-30 14:08 32.84812 -97.16346 10082 ft 265 kts 181°
2026-04-30 14:09 32.82951 -97.16245 9822 ft 264 kts 180°
2026-04-30 14:09 32.81123 -97.16145 9566 ft 262 kts 180°
2026-04-30 14:09 32.77530 -97.16015 9062 ft 258 kts 181°
2026-04-30 14:10 32.75754 -97.16029 8841 ft 253 kts 181°
2026-04-30 14:10 32.73993 -97.16053 8546 ft 252 kts 181°
2026-04-30 14:10 32.72250 -97.16068 8290 ft 247 kts 181°
2026-04-30 14:10 32.70537 -97.16074 7992 ft 245 kts 180°
2026-04-30 14:11 32.68837 -97.16077 7668 ft 244 kts 180°
2026-04-30 14:11 32.67143 -97.16079 7376 ft 242 kts 180°
2026-04-30 14:11 32.65459 -97.16079 7074 ft 243 kts 180°
2026-04-30 14:11 32.63762 -97.16079 6754 ft 244 kts 179°
2026-04-30 14:12 32.62055 -97.16073 6430 ft 246 kts 178°
2026-04-30 14:12 32.60402 -97.15676 6108 ft 242 kts 155°
2026-04-30 14:12 32.59149 -97.14396 5781 ft 239 kts 125°
2026-04-30 14:12 32.58605 -97.12566 5472 ft 236 kts 99°
2026-04-30 14:13 32.58479 -97.10679 5280 ft 230 kts 94°
2026-04-30 14:13 32.58382 -97.08815 5143 ft 222 kts 92°
2026-04-30 14:13 32.58556 -97.07047 5010 ft 213 kts 70°
2026-04-30 14:13 32.59471 -97.05755 4932 ft 203 kts 36°
2026-04-30 14:14 32.60796 -97.05378 4960 ft 194 kts
2026-04-30 14:14 32.62114 -97.05521 4969 ft 187 kts 360°
2026-04-30 14:14 32.63417 -97.05663 4981 ft 189 kts 359°
2026-04-30 14:14 32.64747 -97.05786 4986 ft 194 kts 359°
2026-04-30 14:15 32.66103 -97.05908 4985 ft 196 kts 359°
2026-04-30 14:15 32.67468 -97.06029 4979 ft 197 kts 359°
2026-04-30 14:15 32.68825 -97.06155 4989 ft 194 kts 359°
2026-04-30 14:15 32.70118 -97.06279 4919 ft 183 kts 359°
2026-04-30 14:16 32.71383 -97.06401 4517 ft 184 kts 359°
2026-04-30 14:16 32.72687 -97.06482 3866 ft 190 kts
2026-04-30 14:16 32.73992 -97.06403 3316 ft 182 kts
2026-04-30 14:16 32.75180 -97.06288 3021 ft 157 kts 12°
2026-04-30 14:17 32.76206 -97.06137 2847 ft 144 kts 14°
2026-04-30 14:17 32.77189 -97.05985 2703 ft 141 kts 14°
2026-04-30 14:17 32.78147 -97.05764 2517 ft 141 kts 20°
2026-04-30 14:17 32.79113 -97.05501 2331 ft 145 kts 14°
2026-04-30 14:18 32.80133 -97.05461 2122 ft 146 kts
2026-04-30 14:18 32.81131 -97.05487 1931 ft 145 kts
2026-04-30 14:18 32.83155 -97.05496 1545 ft 145 kts
2026-04-30 14:19 32.85171 -97.05488 1163 ft 145 kts
2026-04-30 14:19 32.86185 -97.05483 946 ft 148 kts
2026-04-30 14:19 32.87218 -97.05479 764 ft 148 kts
2026-04-30 14:20 32.88241 -97.05479 630 ft 141 kts
2026-04-30 14:20 32.89104 -97.05472 623 ft 104 kts
2026-04-30 14:20 32.89993 -97.05357 621 ft 36 kts 34°
2026-04-30 14:21 32.90111 -97.05206 621 ft 22 kts 82°
2026-04-30 14:21 32.90115 -97.05033 621 ft 20 kts 88°
2026-04-30 14:21 32.90033 -97.04880 621 ft 6 kts 184°
2026-04-30 14:22 32.89993 -97.04881 621 ft 3 kts 173°
2026-04-30 14:22 32.89939 -97.04881 621 ft 6 kts 183°
2026-04-30 14:22 32.89898 -97.04837 621 ft 12 kts 104°
2026-04-30 14:23 32.89987 -97.04752 621 ft 11 kts 354°
2026-04-30 14:23 32.90133 -97.04720 621 ft 9 kts 73°
2026-04-30 14:24 32.90100 -97.04659 621 ft 5 kts 224°
2026-04-30 14:24 32.90071 -97.04665 621 ft 5 kts 135°
2026-04-30 14:25 32.90019 -97.04608 621 ft 4 kts 134°
2026-04-30 14:25 32.90004 -97.04589 621 ft 0 kts 135°